IS0GQX-3 Weather Reports


time (UTC)temp
C
wind
direction
speed
KPH
gust
KPH
rain 1hr
cm
rain 24hr
cm
rain mn
cm
humidity
%
barometer
mb
20260902175948 37 0.0 0.0 0.00 0.00 0.00 1018.9
20260902173948 38 0.0 0.0 0.00 0.00 0.00 1018.6
20260902171947 40 0.0 0.0 0.00 0.00 0.00 1018.4
20260902165947 41 0.0 0.0 0.00 0.00 0.00 1018.3
20260902163946 42 0.0 0.0 0.00 0.00 7.11 1018.3
20260902161946 43 0.0 0.0 0.00 0.00 7.11 1018.3
20260902155946 45 0.0 0.0 0.00 0.00 7.11 1018.3
20260902153945 43 0.0 0.0 0.00 0.00 7.11 1018.4
20260902151945 43 0.0 0.0 0.00 0.00 7.11 1018.6
20260902145945 43 0.0 0.0 0.00 0.00 7.11 1018.7
20260902143944 43 0.0 0.0 0.00 0.00 7.11 1018.9
20260902141944 43 0.0 0.0 0.00 0.00 7.11 1019.0
20260902135944 43 0.0 0.0 0.00 0.00 7.11 1018.9
20260902134716 45 0.0 0.0 0.00 0.00 0.00 1019.0
20260902132715 45 0.0 0.0 0.00 0.00 0.00 1019.0
20260902130715 45 0.0 0.0 0.00 0.00 0.00 1019.2
20260902124715 44 0.0 0.0 0.00 0.00 0.00 1019.3
20260902122714 45 0.0 0.0 0.00 0.00 0.00 1018.8
20260902120714 46 0.0 0.0 0.00 0.00 0.00 1019.2
20260902114713 46 0.0 0.0 0.00 0.00 0.00 1019.5
20260902112713 46 0.0 0.0 0.00 0.00 0.00 1019.7
20260902110713 44 0.0 0.0 0.00 0.00 0.00 1019.3
20260902104712 45 0.0 0.0 0.00 0.00 0.00 1020.1
20260902102712 44 0.0 0.0 0.00 0.00 0.00 1020.2
20260902100712 43 0.0 0.0 0.00 0.00 0.00 1019.9
20260902094712 43 0.0 0.0 0.00 0.00 0.00 1020.4
20260902092710 42 0.0 0.0 0.00 0.00 0.00 1020.4
20260902090710 42 0.0 0.0 0.00 0.00 0.00 1020.3
20260902084710 42 0.0 0.0 0.00 0.00 0.00 1020.3
20260902082709 41 0.0 0.0 0.00 0.00 0.00 1020.1
20260902080709 41 0.0 0.0 0.00 0.00 0.00 1019.9
20260902074709 40 0.0 0.0 0.00 0.00 0.00 1019.9
20260902072708 41 0.0 0.0 0.00 0.00 0.00 1019.6
20260902070708 42 0.0 0.0 0.00 0.00 0.00 1019.6
20260902064708 38 0.0 0.0 0.00 0.00 0.00 1019.7
20260902062707 36 0.0 0.0 0.00 0.00 0.00 1019.5
20260902060707 36 0.0 0.0 0.00 0.00 0.00 1019.4
20260902054707 35 0.0 0.0 0.00 0.00 0.00 1019.3
20260902052706 35 0.0 0.0 0.00 0.00 0.00 1019.1
20260902050706 36 0.0 0.0 0.00 0.00 0.00 1018.7
20260902044706 36 0.0 0.0 0.00 0.00 0.00 1018.7
20260902042705 35 0.0 0.0 0.00 0.00 0.00 1018.9
20260902040705 34 0.0 0.0 0.00 0.00 0.00 1019.1
20260902034705 34 0.0 0.0 0.00 0.00 0.00 1018.9
20260902032705 35 0.0 0.0 0.00 0.00 0.00 1018.9
20260902030704 35 0.0 0.0 0.00 0.00 0.00 1018.8
20260902024704 34 0.0 0.0 0.00 0.00 0.00 1018.8
20260902022704 35 0.0 0.0 0.00 0.00 0.00 1018.8
20260902020703 34 0.0 0.0 0.00 0.00 0.00 1019.0
20260902014703 34 0.0 0.0 0.00 0.00 0.00 1018.9
20260902012703 35 0.0 0.0 0.00 0.00 0.00 1018.7
20260902010702 35 0.0 0.0 0.00 0.00 0.00 1018.7
20260902004701 35 0.0 0.0 0.00 0.00 0.00 1018.8
20260902002701 35 0.0 0.0 0.00 0.00 0.00 1018.6
20260902000701 35 0.0 0.0 0.00 0.00 0.00 1018.9
20260901234700 35 0.0 0.0 0.00 0.00 0.00 1019.1
20260901232700 35 0.0 0.0 0.00 0.00 0.00 1019.2
20260901230700 35 0.0 0.0 0.00 0.00 0.00 1019.3
20260901224659 35 0.0 0.0 0.00 0.00 0.00 1019.5
20260901222659 36 0.0 0.0 0.00 0.00 0.00 1019.4
20260901220659 36 0.0 0.0 0.00 0.00 0.00 1019.3
20260901214658 37 0.0 0.0 0.00 0.00 0.00 1019.2
20260901212658 36 0.0 0.0 0.00 0.00 0.00 1019.6
20260901210659 36 0.0 0.0 0.00 0.00 0.00 1019.8
20260901204658 36 0.0 0.0 0.00 0.00 0.00 1020.0
20260901202657 36 0.0 0.0 0.00 0.00 0.00 1019.9
20260901200657 36 0.0 0.0 0.00 0.00 0.00 1019.9
20260901194656 36 0.0 0.0 0.00 0.00 0.00 1019.9
20260901192656 36 0.0 0.0 0.00 0.00 0.00 1019.7
20260901190656 36 0.0 0.0 0.00 0.00 0.00 1019.5
20260901184655 37 0.0 0.0 0.00 0.00 0.00 1019.2
20260901182655 35 0.0 0.0 0.00 0.00 0.00 1017.4
20260901180654 37 0.0 0.0 0.00 0.00 0.00 1018.7